Location: Devore Heights
(34.2372°N, 117.4156°W)
Time: 07:39:59
(UTC+00:00)

Vanguard 1 Rocket - Pass Details

Date: 21 September 2024
Orbit: 650 x 4218 km, 34.3° (Epoch: 09 October)

Event Time Altitude Azimuth Distance (km) Brightness Sun altitude
Rises 12:29:44 0° 272° (W) 5,440 - -14.7°
Reaches altitude 10° 12:32:35 10° 272° (W) 4,792 - -14.2°
Exits shadow 12:33:53 15° 273° (W) 4,521 10.3 -13.9°
Maximum altitude 12:48:01 90° 189° (S) 3,395 10.2 -11.0°
Drops below altitude 10° 13:14:07 10° 99° (E) 7,421 13.7 -5.7°
Sets 13:19:56 0° 100° (E) 8,397 14.4 -4.5°
